Location: Ar Ranvel
(48.3000°N, 4.8833°W)
Time: 00:19:57
(UTC+00:00)

FALCON 9 DEB - Pass Details

Date: 29 October 2021
Orbit: 417 x 427 km, 53.0° (Epoch: 28 November)

Event Time Altitude Azimuth Distance (km) Brightness Sun altitude
Rises 17:40:40 0° 216° (SW) 2,385 7.7 -6.5°
Reaches altitude 10° 17:42:53 10° 206° (SSW) 1,523 6.5 -6.9°
Maximum altitude 17:45:58 32° 141° (SE) 764 4.1 -7.4°
Enters shadow 17:48:59 11° 78° (ENE) 1,499 5.1 -7.9°
